Location: Gull Harbor
(47.1000°N, 122.9000°W)
Time: 09:50:39
(UTC-08:00)

Amateur Radio Satellites - All Passes

Search period start: 17 January 2018 09:20
Search period end: 18 January 2018 09:20
Location: Gull Harbor, 47.1000°N, 122.9000°W

Satellite Date Start Highest point End Downlink Frequencies (MHz)
Time Altitude Azimuth
ZACube-1 17 Jan 09:27:16 09:31:06 26° 295° (WNW) 09:34:53 437.345
XW-2A 17 Jan 09:32:15 09:33:35 12° 298° (WNW) 09:34:56 145.665 - 145.685
AO-73 17 Jan 09:36:45 09:40:26 24° 296° (WNW) 09:44:04 145.935
AIST 2D 17 Jan 09:42:13 09:45:01 23° 67° (ENE) 09:47:50 435.315
POLYITAN 1 17 Jan 10:01:45 10:04:22 16° 61° (ENE) 10:07:00 437.675
SO-50 17 Jan 10:06:58 10:07:20 10° 347° (NNW) 10:07:42 436.795
TIGRISAT 17 Jan 10:11:51 10:15:13 21° 268° (W) 10:18:41 435.000
Max Valier Satellite 17 Jan 10:11:52 10:15:36 88° 283° (WNW) 10:19:17 145.860
Oscar 11 17 Jan 10:15:24 10:18:01 16° 299° (WNW) 10:20:37 .
PCSat 17 Jan 10:15:28 10:20:13 32° 111° (ESE) 10:24:59 145.827
PRISM 17 Jan 10:15:58 10:19:59 60° 258° (WSW) 10:24:02 437.425
DELFI C3 17 Jan 10:16:01 10:19:51 54° 287° (WNW) 10:23:40 145.870
BEESAT 3 17 Jan 10:19:51 10:23:15 27° 116° (ESE) 10:26:40 437.485
NANOSAT C BR1 17 Jan 10:20:37 10:23:49 21° 64° (ENE) 10:27:02 145.865
UNISAT 6 17 Jan 10:27:11 10:29:37 14° 272° (W) 10:32:06 437.425
QB50P2 17 Jan 10:29:41 10:33:26 32° 68° (ENE) 10:37:13 145.880/145.840
LO-87 17 Jan 10:40:07 10:42:35 17° 92° (E) 10:45:02 145.935 - 145.965
EO-88 17 Jan 10:40:30 10:44:06 60° 287° (WNW) 10:47:40 145.990 - 145.960
O/OREOS (USA 219) 17 Jan 10:54:13 10:58:43 86° 65° (ENE) 11:03:13 437.305
BEESAT 2 17 Jan 10:58:24 11:01:20 20° 113° (ESE) 11:04:17 435.950
EO-79 17 Jan 11:01:37 11:05:46 60° 72° (ENE) 11:09:58 145.935-145.965
DUCHIFAT 1 17 Jan 11:05:39 11:09:43 51° 71° (ENE) 11:13:50 145.980
YUBILEINY 17 Jan 11:09:54 11:18:35 70° 266° (W) 11:27:11 435.215
AIST 2D 17 Jan 11:15:02 11:18:04 26° 265° (W) 11:21:06 435.315
Oscar 19 17 Jan 11:24:51 11:28:26 19° 58° (ENE) 11:32:01 437.125/150
RS-15 17 Jan 11:32:12 11:43:56 47° 329° (NNW) 11:55:22 29.354- 29.394
POLYITAN 1 17 Jan 11:35:30 11:39:41 60° 259° (W) 11:43:55 437.675
AO-7 17 Jan 11:47:32 11:51:30 14° 35° (NE) 11:55:27 .
ESTCUBE 1 17 Jan 11:51:06 11:55:37 80° 102° (ESE) 12:00:06 437.505/2401.250
NANOSAT C BR1 17 Jan 11:55:16 11:59:15 42° 262° (W) 12:03:18 145.865
BEESAT 3 17 Jan 11:56:56 12:00:39 37° 315° (NW) 12:04:24 437.485
PCSat 17 Jan 11:58:14 12:03:27 47° 311° (NW) 12:08:42 145.827
QB50P2 17 Jan 12:05:37 12:09:13 27° 265° (W) 12:12:52 145.880/145.840
VELOX 1 17 Jan 12:09:10 12:12:13 18° 92° (E) 12:15:14 145.980
LO-87 17 Jan 12:12:45 12:16:07 36° 289° (WNW) 12:19:28 145.935 - 145.965
Gurwin Techsat 1B 17 Jan 12:16:48 12:21:39 38° 66° (ENE) 12:26:33 435.225
BUGSAT 1 17 Jan 12:22:44 12:26:47 81° 74° (ENE) 12:30:56 437.445
AO-91 17 Jan 12:29:45 12:33:03 52° 72° (ENE) 12:36:24 145.960
BEESAT 2 17 Jan 12:34:47 12:38:43 51° 312° (NW) 12:42:41 435.950
SPROUT 17 Jan 12:36:04 12:40:20 60° 101° (E) 12:44:34 437.525
O/OREOS (USA 219) 17 Jan 12:36:11 12:37:24 11° 263° (W) 12:38:36 437.305
EO-79 17 Jan 12:39:35 12:41:55 14° 270° (W) 12:44:16 145.935-145.965
DUCHIFAT 1 17 Jan 12:42:55 12:45:40 17° 269° (W) 12:48:27 145.980
Oscar 19 17 Jan 13:02:00 13:07:12 72° 257° (WSW) 13:12:25 437.125/150
YUBILEINY 17 Jan 13:09:17 13:13:39 15° 288° (WNW) 13:18:00 435.215
AO-85 17 Jan 13:26:38 13:30:38 85° 126° (SE) 13:34:58 145.980
SO-50 17 Jan 13:28:15 13:32:07 25° 36° (NE) 13:36:02 436.795
ESTCUBE 1 17 Jan 13:29:30 13:31:48 14° 302° (WNW) 13:34:06 437.505/2401.250
AO-7 17 Jan 13:34:24 13:42:14 47° 59° (ENE) 13:50:06 .
50 SAT 17 Jan 13:40:50 13:43:28 24° 97° (E) 13:46:04 437.505
VELOX 1 17 Jan 13:44:40 13:48:56 51° 289° (WNW) 13:53:11 145.980
PCSat 17 Jan 13:45:21 13:48:14 14° 334° (NNW) 13:51:08 145.827
RS-15 17 Jan 13:49:34 14:00:13 33° 2° (N) 14:10:28 29.354- 29.394
Gurwin Techsat 1B 17 Jan 13:56:52 14:01:38 33° 264° (W) 14:06:26 435.225
ITAMSAT 1 17 Jan 14:00:44 14:05:02 27° 62° (ENE) 14:09:20 435.822/435.867
BUGSAT 1 17 Jan 14:02:31 14:02:43 10° 273° (W) 14:02:56 437.445
UKube-1 17 Jan 14:09:36 14:13:38 38° 98° (E) 14:17:39 .
DX 1 17 Jan 14:12:56 14:17:16 68° 102° (ESE) 14:21:35 434.975-435.025
SPROUT 17 Jan 14:13:02 14:15:46 17° 299° (WNW) 14:18:28 437.525
BEESAT 2 17 Jan 14:15:39 14:17:21 12° 333° (NNW) 14:19:04 435.950
BEESAT 17 Jan 14:38:56 14:41:44 15° 89° (E) 14:44:30 436.000
M-CUBED/EXP-1 PRIME 17 Jan 14:54:07 14:57:59 31° 62° (ENE) 15:01:38 437.505
CUBESAT XI-V 17 Jan 14:58:41 14:59:28 10° 86° (E) 15:00:14 437.345
MOZHAYETS 4 17 Jan 15:02:59 15:07:26 42° 98° (E) 15:11:49
SO-50 17 Jan 15:08:20 15:13:00 68° 236° (WSW) 15:17:43 436.795
AO-85 17 Jan 15:08:41 15:11:41 19° 328° (NNW) 15:14:51 145.980
50 SAT 17 Jan 15:12:46 15:15:03 19° 293° (WNW) 15:17:19 437.505
AO-7 17 Jan 15:26:58 15:34:58 49° 259° (W) 15:43:03 .
ITUPSAT 1 17 Jan 15:32:54 15:37:34 47° 99° (E) 15:42:12 437.325
DOVE 4 17 Jan 15:38:16 15:42:24 44° 71° (ENE) 15:46:24 437.250
ITAMSAT 1 17 Jan 15:39:18 15:44:16 47° 261° (W) 15:49:16 435.822/435.867
HO-68 17 Jan 15:44:51 15:47:52 13° 43° (NE) 15:50:52 435.675
UKube-1 17 Jan 15:46:00 15:49:28 24° 296° (WNW) 15:52:55 .
DX 1 17 Jan 15:50:25 15:52:56 15° 301° (WNW) 15:55:28 434.975-435.025
RS-15 17 Jan 16:04:37 16:16:13 51° 35° (NE) 16:27:11 29.354- 29.394
LilacSat-2 17 Jan 16:05:05 16:07:11 14° 62° (ENE) 16:09:17 437.200
XW-2C 17 Jan 16:11:59 16:14:17 15° 63° (ENE) 16:16:34 145.795 - 145.815
BEESAT 17 Jan 16:15:12 16:20:00 71° 287° (WNW) 16:24:46 436.000
M-CUBED/EXP-1 PRIME 17 Jan 16:28:23 16:32:18 31° 258° (WSW) 16:36:02 437.505
CUBESAT XI-V 17 Jan 16:32:53 16:37:33 87° 105° (ESE) 16:42:09 437.345
MOZHAYETS 4 17 Jan 16:40:35 16:44:21 25° 296° (WNW) 16:48:05
CUTE-I 17 Jan 16:45:36 16:50:26 37° 65° (ENE) 16:55:17 437.470
XW-2F 17 Jan 16:50:40 16:54:09 35° 70° (ENE) 16:57:38 145.980 - 146.000
KAITUO 1B 17 Jan 16:55:45 16:59:05 30° 69° (ENE) 17:02:25 145.475/437.950
CUTE 1.7 + AOD 2 17 Jan 16:56:11 16:58:45 16° 61° (ENE) 17:01:18 437.475
XW-2D 17 Jan 16:56:49 17:00:29 45° 72° (ENE) 17:04:11 145.860 - 145.880
BEESAT 3 17 Jan 16:57:07 16:58:16 11° 25° (NNE) 16:59:24 437.485
KKS-1 17 Jan 16:59:39 17:03:24 26° 95° (E) 17:07:10 437.445
ITUPSAT 1 17 Jan 17:11:16 17:15:08 24° 298° (WNW) 17:18:59 437.325
NUDT-PHONESAT 17 Jan 17:13:23 17:16:58 45° 72° (ENE) 17:20:33 437.300
XW-2B 17 Jan 17:14:07 17:17:55 69° 75° (ENE) 17:21:45 145.730 - 145.750
PCSat 17 Jan 17:17:03 17:20:13 15° 28° (NNE) 17:23:22 145.827
DOVE 4 17 Jan 17:17:13 17:20:19 19° 268° (W) 17:23:20 437.250
STARS 17 Jan 17:26:36 17:29:56 21° 93° (E) 17:33:15 437.465
HO-68 17 Jan 17:27:09 17:34:01 52° 64° (ENE) 17:40:53 435.675
LilacSat-2 17 Jan 17:37:11 17:41:00 57° 260° (W) 17:44:51 437.200
XW-2C 17 Jan 17:44:18 17:48:03 51° 260° (W) 17:51:49 145.795 - 145.815
BEESAT 17 Jan 17:55:33 17:56:53 11° 306° (NW) 17:58:14 436.000
CUBEBUG 2 17 Jan 18:03:47 18:07:57 46° 70° (ENE) 18:12:16 437.445
CUBESAT XI-V 17 Jan 18:12:01 18:14:14 13° 303° (WNW) 18:16:26 437.345
UWE-3 17 Jan 18:17:03 18:21:06 37° 68° (ENE) 18:25:17 435.000/436.395/437.385
RS-15 17 Jan 18:17:41 18:29:15 66° 242° (WSW) 18:40:11 29.354- 29.394
AAUSAT CUBESAT 2 17 Jan 18:18:24 18:21:55 27° 67° (ENE) 18:25:26 437.432
SEEDS 17 Jan 18:24:36 18:28:48 71° 74° (ENE) 18:33:02 437.485
XW-2F 17 Jan 18:25:29 18:28:20 20° 267° (W) 18:31:13 145.980 - 146.000
CUTE-I 17 Jan 18:25:39 18:30:29 35° 264° (W) 18:35:20 437.470
CUTE 1.7 + AOD 2 17 Jan 18:29:52 18:34:06 63° 259° (W) 18:38:22 437.475
KAITUO 1B 17 Jan 18:30:04 18:33:04 22° 266° (W) 18:36:04 145.475/437.950
XW-2A 17 Jan 18:31:40 18:34:37 27° 69° (ENE) 18:37:35 145.665 - 145.685
XW-2D 17 Jan 18:32:32 18:34:54 16° 269° (W) 18:37:16 145.860 - 145.880
BEESAT 3 17 Jan 18:32:58 18:36:47 45° 47° (NE) 18:40:30 437.485
AO-85 17 Jan 18:35:05 18:36:36 11° 19° (NNE) 18:38:10 145.980
KKS-1 17 Jan 18:35:58 18:40:01 36° 293° (WNW) 18:44:04 437.445
NUDT-PHONESAT 17 Jan 18:48:48 18:51:02 15° 269° (W) 18:53:16 437.300
ZACube-1 17 Jan 18:48:55 18:53:06 42° 69° (ENE) 18:57:23 437.345
NO-84 17 Jan 18:50:02 18:52:58 65° 144° (SE) 18:55:48 435.350 FM
XW-2B 17 Jan 18:51:43 18:52:33 11° 272° (W) 18:53:21 145.730 - 145.750
AO-73 17 Jan 18:57:56 19:02:10 45° 70° (ENE) 19:06:30 145.935
PCSat 17 Jan 18:59:33 19:04:54 53° 51° (NE) 19:10:11 145.827
STARS 17 Jan 19:02:16 19:06:28 45° 290° (WNW) 19:10:41 437.465
BEESAT 2 17 Jan 19:11:55 19:15:38 34° 44° (NE) 19:19:18 435.950
HO-68 17 Jan 19:15:28 19:21:57 36° 264° (W) 19:28:29 435.675
FO-29 17 Jan 19:31:06 19:35:13 23° 92° (E) 19:39:15 435.910
DELFI C3 17 Jan 19:31:18 19:33:07 13° 61° (ENE) 19:34:55 145.870
Oscar 11 17 Jan 19:35:14 19:39:35 70° 73° (ENE) 19:43:56 .
STRAND 1 17 Jan 19:39:18 19:44:25 62° 102° (ESE) 19:49:30 437.568
CUBEBUG 2 17 Jan 19:41:36 19:44:49 20° 269° (W) 19:48:08 437.445
AAUSAT CUBESAT 2 17 Jan 19:53:38 19:57:17 30° 265° (W) 20:00:57 437.432
UWE-3 17 Jan 19:54:00 19:57:39 25° 267° (W) 20:01:25 435.000/436.395/437.385
SEEDS 17 Jan 20:03:16 20:04:58 12° 272° (W) 20:06:41 437.485
XW-2A 17 Jan 20:04:42 20:07:19 20° 266° (W) 20:09:56 145.665 - 145.685
BEESAT 3 17 Jan 20:11:03 20:14:01 21° 246° (WSW) 20:16:58 437.485
AO-85 17 Jan 20:14:07 20:18:27 32° 41° (NE) 20:23:02 145.980
ZACube-1 17 Jan 20:26:03 20:29:32 23° 268° (W) 20:33:07 437.345
NO-84 17 Jan 20:27:54 20:30:19 24° 342° (NNW) 20:32:43 435.350 FM
RS-15 17 Jan 20:33:01 20:39:03 16° 266° (W) 20:44:59 29.354- 29.394
AO-73 17 Jan 20:35:16 20:38:37 21° 269° (W) 20:42:03 145.935
UNISAT 6 17 Jan 20:38:20 20:40:14 12° 87° (E) 20:42:08 437.425
PCSat 17 Jan 20:43:26 20:48:00 28° 250° (WSW) 20:52:32 145.827
BEESAT 2 17 Jan 20:49:45 20:53:17 30° 243° (WSW) 20:56:46 435.950
Max Valier Satellite 17 Jan 20:52:51 20:56:32 62° 74° (ENE) 21:00:15 145.860
DELFI C3 17 Jan 21:03:26 21:07:20 66° 258° (WSW) 21:11:14 145.870
Oscar 11 17 Jan 21:14:06 21:16:11 13° 272° (W) 21:18:16 .
FO-29 17 Jan 21:15:36 21:20:43 49° 291° (WNW) 21:25:41 435.910
ESTCUBE 1 17 Jan 21:19:05 21:21:27 14° 59° (ENE) 21:23:50 437.505/2401.250
STRAND 1 17 Jan 21:19:22 21:23:09 21° 300° (WNW) 21:26:57 437.568
LO-87 17 Jan 21:19:55 21:21:20 12° 62° (ENE) 21:22:47 145.935 - 145.965
EO-88 17 Jan 21:20:11 21:23:50 87° 76° (ENE) 21:27:32 145.990 - 145.960
AO-85 17 Jan 21:54:19 21:59:05 51° 240° (WSW) 22:04:08 145.980
PRISM 17 Jan 21:55:10 21:57:24 14° 90° (E) 21:59:38 437.425
TIGRISAT 17 Jan 21:58:30 22:03:11 65° 102° (ESE) 22:07:51 435.000
NO-84 17 Jan 22:06:14 22:08:11 17° 4° (N) 22:10:10 435.350 FM
ISS 17 Jan 22:11:50 22:14:46 31° 143° (SE) 22:17:42 437.550
nSIGHT-1 17 Jan 22:12:42 22:15:42 42° 147° (SSE) 22:18:45 .
UNISAT 6 17 Jan 22:12:49 22:17:33 85° 285° (WNW) 22:22:15 437.425
YUBILEINY 17 Jan 22:19:16 22:26:33 30° 81° (E) 22:33:50 435.215
Max Valier Satellite 17 Jan 22:29:32 22:30:44 11° 271° (W) 22:31:57 145.860
AIST 2D 17 Jan 22:36:48 22:39:12 17° 92° (E) 22:41:35 435.315
LO-87 17 Jan 22:50:45 22:54:15 59° 259° (W) 22:57:48 145.935 - 145.965
ESTCUBE 1 17 Jan 22:53:06 22:57:38 80° 257° (WSW) 23:02:12 437.505/2401.250
VELOX 1 17 Jan 23:09:00 23:12:32 24° 64° (ENE) 23:16:03 145.980
POLYITAN 1 17 Jan 23:17:53 23:20:50 18° 91° (E) 23:23:46 437.675
PRISM 17 Jan 23:29:02 23:33:01 56° 288° (WNW) 23:37:01 437.425
SPROUT 17 Jan 23:31:44 23:35:56 65° 73° (ENE) 23:40:11 437.525
TIGRISAT 17 Jan 23:36:15 23:39:22 18° 299° (WNW) 23:42:30 435.000
NANOSAT C BR1 17 Jan 23:36:26 23:39:56 24° 94° (E) 23:43:25 145.865
DX 1 17 Jan 23:38:26 23:39:49 11° 57° (ENE) 23:41:14 434.975-435.025
NO-84 17 Jan 23:43:17 23:45:56 36° 25° (NNE) 23:48:41 435.350 FM
QB50P2 17 Jan 23:46:29 23:50:31 38° 98° (E) 23:54:31 145.880/145.840
ISS 17 Jan 23:47:53 23:51:07 57° 342° (NNW) 23:54:21 437.550
nSIGHT-1 17 Jan 23:48:48 23:51:53 46° 345° (NNW) 23:54:59 .
UNISAT 6 17 Jan 23:51:29 23:53:31 13° 303° (WNW) 23:55:33 437.425
50 SAT 18 Jan 00:09:14 00:10:39 13° 64° (ENE) 00:12:06 437.505
AIST 2D 18 Jan 00:09:18 00:12:28 32° 290° (WNW) 00:15:35 435.315
YUBILEINY 18 Jan 00:13:53 00:22:40 68° 283° (WNW) 00:31:28 435.215
EO-79 18 Jan 00:18:31 00:22:49 75° 103° (ESE) 00:27:06 145.935-145.965
DUCHIFAT 1 18 Jan 00:21:40 00:25:55 61° 101° (ESE) 00:30:08 145.980
Gurwin Techsat 1B 18 Jan 00:32:17 00:33:35 11° 85° (E) 00:34:53 435.225
VELOX 1 18 Jan 00:44:39 00:48:46 39° 262° (W) 00:52:54 145.980
POLYITAN 1 18 Jan 00:52:43 00:56:54 49° 289° (WNW) 01:01:02 437.675
UKube-1 18 Jan 01:06:31 01:10:39 48° 70° (ENE) 01:14:48 .
ITUPSAT 1 18 Jan 01:08:17 01:10:04 12° 55° (NE) 01:11:52 437.325
O/OREOS (USA 219) 18 Jan 01:09:21 01:13:45 55° 110° (ESE) 01:18:09 437.305
SPROUT 18 Jan 01:10:09 01:12:16 13° 271° (W) 01:14:23 437.525
Oscar 19 18 Jan 01:10:44 01:15:21 31° 95° (E) 01:19:55 437.125/150
DX 1 18 Jan 01:10:58 01:15:18 86° 70° (ENE) 01:19:40 434.975-435.025
NANOSAT C BR1 18 Jan 01:11:48 01:15:42 36° 292° (WNW) 01:19:37 145.865
NO-84 18 Jan 01:20:28 01:23:02 29° 223° (SW) 01:25:42 435.350 FM
QB50P2 18 Jan 01:22:39 01:26:06 24° 295° (WNW) 01:29:32 145.880/145.840
ISS 18 Jan 01:24:55 01:27:58 35° 1° (N) 01:31:02 437.550
nSIGHT-1 18 Jan 01:25:30 01:28:28 35° 5° (N) 01:31:27 .
BUGSAT 1 18 Jan 01:36:17 01:40:32 90° 325° (NW) 01:44:48 437.445
50 SAT 18 Jan 01:39:09 01:42:03 38° 261° (W) 01:45:00 437.505
BEESAT 18 Jan 01:47:42 01:51:36 26° 63° (ENE) 01:55:33 436.000
AO-91 18 Jan 01:50:53 01:55:07 86° 104° (ESE) 01:59:50 145.960
EO-79 18 Jan 01:55:49 01:58:00 14° 301° (WNW) 02:00:11 145.935-145.965
DUCHIFAT 1 18 Jan 01:58:29 02:01:07 16° 299° (WNW) 02:03:44 145.980
CUBESAT XI-V 18 Jan 02:03:35 02:06:32 17° 60° (ENE) 02:09:30 437.345
MOZHAYETS 4 18 Jan 02:07:22 02:11:54 58° 72° (ENE) 02:16:29
Gurwin Techsat 1B 18 Jan 02:09:04 02:14:25 76° 104° (ESE) 02:19:44 435.225
YUBILEINY 18 Jan 02:16:02 02:21:26 17° 307° (NW) 02:26:52 435.215
ITUPSAT 1 18 Jan 02:42:18 02:47:05 77° 72° (ENE) 02:51:53 437.325
UKube-1 18 Jan 02:43:54 02:46:55 18° 268° (W) 02:49:57 .
Oscar 19 18 Jan 02:49:55 02:54:43 39° 294° (WNW) 02:59:28 437.125/150
O/OREOS (USA 219) 18 Jan 02:50:04 02:53:30 21° 310° (NW) 02:56:56 437.305
DX 1 18 Jan 02:51:18 02:52:05 10° 272° (W) 02:52:53 434.975-435.025
ISS 18 Jan 03:01:32 03:04:48 65° 21° (NNE) 03:08:04 437.550
nSIGHT-1 18 Jan 03:01:43 03:04:55 82° 25° (NNE) 03:08:06 .
BUGSAT 1 18 Jan 03:13:48 03:15:13 12° 302° (WNW) 03:16:39 437.445
AO-7 18 Jan 03:24:32 03:32:38 50° 101° (E) 03:40:39 .
BEESAT 18 Jan 03:24:38 03:29:10 43° 261° (W) 03:33:44 436.000
AO-91 18 Jan 03:29:21 03:31:07 12° 299° (WNW) 03:32:56 145.960
CUBESAT XI-V 18 Jan 03:38:41 03:43:23 70° 258° (WSW) 03:48:05 437.345
MOZHAYETS 4 18 Jan 03:46:20 03:49:25 18° 270° (W) 03:52:32
ITAMSAT 1 18 Jan 03:48:39 03:53:42 47° 100° (E) 03:58:42 435.822/435.867
Gurwin Techsat 1B 18 Jan 03:50:11 03:53:46 19° 302° (WNW) 03:57:20 435.225
KKS-1 18 Jan 04:00:18 04:04:19 36° 67° (ENE) 04:08:22 437.445
ITUPSAT 1 18 Jan 04:23:01 04:25:28 14° 271° (W) 04:27:56 437.325
STARS 18 Jan 04:25:49 04:29:29 27° 65° (ENE) 04:33:11 437.465
ISS 18 Jan 04:38:18 04:41:05 26° 219° (SW) 04:43:52 437.550
nSIGHT-1 18 Jan 04:38:28 04:40:45 18° 222° (SW) 04:43:01 .
CUTE-I 18 Jan 05:02:15 05:03:04 10° 85° (E) 05:03:55 437.470
LilacSat-2 18 Jan 05:08:55 05:10:29 12° 89° (E) 05:12:04 437.200
DOVE 4 18 Jan 05:10:28 05:14:45 83° 106° (ESE) 05:19:13 437.250
XW-2C 18 Jan 05:15:00 05:16:51 13° 90° (E) 05:18:41 145.795 - 145.815
AO-7 18 Jan 05:17:31 05:25:21 46° 302° (WNW) 05:33:09 .
STRAND 1 18 Jan 05:21:10 05:24:39 19° 59° (ENE) 05:28:10 437.568
SO-50 18 Jan 05:26:40 05:29:43 18° 112° (ESE) 05:32:47 436.795
ITAMSAT 1 18 Jan 05:28:36 05:32:55 27° 298° (WNW) 05:37:13 435.822/435.867
KKS-1 18 Jan 05:37:14 05:40:56 26° 265° (W) 05:44:40 437.445
M-CUBED/EXP-1 PRIME 18 Jan 05:37:39 05:41:06 64° 293° (WNW) 05:44:22 437.505
FO-29 18 Jan 05:47:02 05:51:34 20° 58° (ENE) 05:55:47 435.910
XW-2F 18 Jan 05:53:16 05:56:41 32° 97° (E) 06:00:02 145.980 - 146.000
KAITUO 1B 18 Jan 05:57:13 06:00:25 27° 95° (E) 06:03:35 145.475/437.950
XW-2D 18 Jan 06:00:03 06:03:40 43° 98° (E) 06:07:15 145.860 - 145.880
STARS 18 Jan 06:01:45 06:05:43 34° 263° (W) 06:09:43 437.465
CUTE 1.7 + AOD 2 18 Jan 06:12:22 06:15:18 18° 91° (E) 06:18:12 437.475
NUDT-PHONESAT 18 Jan 06:13:49 06:17:19 39° 98° (E) 06:20:46 437.300
XW-2B 18 Jan 06:17:27 06:21:13 67° 102° (ESE) 06:24:56 145.730 - 145.750
RS-15 18 Jan 06:37:55 06:44:27 16° 94° (E) 06:50:56 29.354- 29.394
CUTE-I 18 Jan 06:38:42 06:44:03 74° 103° (ESE) 06:49:21 437.470
HO-68 18 Jan 06:38:50 06:45:30 40° 97° (E) 06:52:08 435.675
FALCONSAT 3 18 Jan 06:40:18 06:41:53 12° 172° (S) 06:43:27 435.103
LilacSat-2 18 Jan 06:41:23 06:45:08 57° 286° (WNW) 06:48:50 437.200
XW-2C 18 Jan 06:47:39 06:51:21 52° 287° (WNW) 06:54:59 145.795 - 145.815
DOVE 4 18 Jan 06:50:09 06:51:53 12° 301° (WNW) 06:53:38 437.250
STRAND 1 18 Jan 06:58:14 07:03:19 70° 257° (WSW) 07:08:25 437.568
SO-50 18 Jan 07:05:14 07:09:41 64° 311° (NW) 07:14:14 436.795
AO-7 18 Jan 07:12:12 07:16:03 14° 325° (NW) 07:19:55 .
Oscar 11 18 Jan 07:22:05 07:22:52 10° 86° (E) 07:23:40 .
XW-2A 18 Jan 07:22:40 07:25:07 18° 93° (E) 07:27:32 145.665 - 145.685
TIGRISAT 18 Jan 07:27:07 07:28:18 11° 56° (NE) 07:29:29 435.000
CUBEBUG 2 18 Jan 07:27:19 07:32:05 72° 102° (ESE) 07:36:50 437.445
XW-2F 18 Jan 07:27:42 07:30:36 21° 294° (WNW) 07:33:29 145.980 - 146.000
FO-29 18 Jan 07:29:05 07:36:04 88° 255° (WSW) 07:42:14 435.910
KAITUO 1B 18 Jan 07:31:16 07:34:17 24° 293° (WNW) 07:37:18 145.475/437.950
AAUSAT CUBESAT 2 18 Jan 07:31:59 07:35:41 32° 96° (E) 07:39:22 437.432
XW-2D 18 Jan 07:35:02 07:37:31 17° 296° (WNW) 07:39:59 145.860 - 145.880
UWE-3 18 Jan 07:39:12 07:43:49 55° 100° (E) 07:48:23 435.000/436.395/437.385
UNISAT 6 18 Jan 07:39:52 07:42:31 16° 59° (ENE) 07:45:12 437.425
SEEDS 18 Jan 07:40:40 07:44:52 88° 274° (W) 07:49:01 437.485
CUTE 1.7 + AOD 2 18 Jan 07:47:19 07:51:23 46° 289° (WNW) 07:55:24 437.475
NUDT-PHONESAT 18 Jan 07:48:22 07:50:51 17° 296° (WNW) 07:53:19 437.300
XW-2B 18 Jan 07:53:22 07:54:51 12° 299° (WNW) 07:56:21 145.730 - 145.750
ZACube-1 18 Jan 08:09:50 08:14:23 60° 100° (E) 08:18:52 437.345
FALCONSAT 3 18 Jan 08:18:30 08:20:06 12° 188° (S) 08:21:42 435.103
AO-73 18 Jan 08:18:31 08:23:05 64° 102° (ESE) 08:27:33 145.935
CUTE-I 18 Jan 08:19:52 08:23:31 19° 302° (WNW) 08:27:11 437.470
YUBILEINY 18 Jan 08:24:44 08:30:24 18° 54° (NE) 08:36:01 435.215
HO-68 18 Jan 08:26:33 08:33:20 47° 297° (WNW) 08:40:05 435.675
DELFI C3 18 Jan 08:38:36 08:40:15 12° 89° (E) 08:41:53 145.870
RS-15 18 Jan 08:42:20 08:54:24 64° 117° (ESE) 09:06:16 29.354- 29.394
PRISM 18 Jan 08:47:12 08:49:47 17° 61° (ENE) 08:52:22 437.425
SO-50 18 Jan 08:48:10 08:51:03 16° 333° (NNW) 08:53:56 436.795
XW-2A 18 Jan 08:54:53 08:57:51 28° 291° (WNW) 09:00:46 145.665 - 145.685
Oscar 11 18 Jan 08:55:15 08:59:37 85° 287° (WNW) 09:03:56 .
TIGRISAT 18 Jan 08:59:45 09:04:09 78° 74° (ENE) 09:08:42 435.000
CUBEBUG 2 18 Jan 09:05:08 09:08:08 17° 300° (WNW) 09:11:08 437.445
AAUSAT CUBESAT 2 18 Jan 09:07:37 09:11:01 25° 294° (WNW) 09:14:23 437.432
AIST 2D 18 Jan 09:14:57 09:16:11 12° 62° (ENE) 09:17:27 435.315
